This demonstration page uses our WeatherBlox Daily Observations layout. Learn more.

Left ArrowRight Arrow

38.88101, -77.10428

Hourly Observations for August 26, 2020

Temp ( °F °C ) Dew Point ( °F °C ) Humidity (%) Winds ( mph kmh ) Pressure ( in mb ) Visibility ( mi km ) Precip ( " mm )
12:52 am 00:52 Cloudy 77 25 67 19.4 71 71 NW 13 20 29.96 1014 10 16.0934 0 0
1:52 am 01:52 Cloudy 77 25 67 19.4 71 71 NW 14 22 29.96 1015 10 16.0934 0 0
2:52 am 02:52 Mostly Cloudy 75 23.9 66 18.9 74 74 NNW 13 20 29.96 1015 10 16.0934 0 0
3:52 am 03:52 Mostly Cloudy 74 23.3 65 18.3 74 74 NW 9 15 29.97 1015 10 16.0934 0 0
4:52 am 04:52 Mostly Cloudy 74 23.3 64 17.8 71 71 NW 8 13 29.98 1015 10 16.0934 0 0
5:52 am 05:52 Partly Cloudy 73 22.8 64 17.8 74 74 WNW 8 13 30 1016 10 16.0934 0 0
6:52 am 06:52 Partly Cloudy 72 22.2 64 17.8 76 76 WNW 5 7 30.03 1017 10 16.0934 0 0
7:52 am 07:52 Mostly Sunny 75 23.9 64 17.8 69 69 NW 6 9 30.04 1017 10 16.0934 0 0
8:52 am 08:52 Mostly Sunny 77 25 62 16.7 60 60 NW 10 17 30.05 1018 10 16.0934 0 0
9:52 am 09:52 Sunny 79 26.1 62 16.7 56 56 NNW 8 13 30.06 1018 10 16.0934 0 0
10:52 am 10:52 Mostly Sunny 81 27.2 60 15.6 49 49 NNW 9 15 30.05 1018 10 16.0934 0 0
11:52 am 11:52 Mostly Sunny 83 28.3 61 16.1 48 48 NW 12 19 30.04 1017 10 16.0934 0 0
12:52 pm 12:52 Mostly Sunny 84 28.9 62 16.7 48 48 NW 9 15 30.03 1017 10 16.0934 0 0
1:52 pm 13:52 Mostly Sunny 85 29.4 61 16.1 45 45 NNW 13 20 30.01 1016 10 16.0934 0 0
2:52 pm 14:52 Mostly Sunny 87 30.6 61 16.1 42 42 NNW 5 7 30 1016 10 16.0934 0 0
3:52 pm 15:52 Partly Cloudy 87 30.6 61 16.1 42 42 W 12 19 29.99 1016 10 16.0934 0 0
4:52 pm 16:52 Partly Cloudy 87 30.6 62 16.7 43 43 W 10 17 29.97 1015 10 16.0934 0 0
5:52 pm 17:52 Partly Cloudy 86 30 62 16.7 45 45 SW 13 20 29.95 1014 10 16.0934 0 0
6:52 pm 18:52 Partly Cloudy 83 28.3 64 17.8 53 53 SW 8 13 29.95 1014 10 16.0934 0 0
7:52 pm 19:52 Mostly Cloudy 82 27.8 64 17.8 55 55 SW 7 11 29.95 1014 10 16.0934 0 0
8:52 pm 20:52 Partly Cloudy 81 27.2 66 18.9 61 61 SSW 7 11 29.96 1015 10 16.0934 0 0
9:52 pm 21:52 Mostly Cloudy 78 25.6 68 20 71 71 SSW 6 9 29.97 1015 10 16.0934 0 0
10:52 pm 22:52 Cloudy 79 26.1 68 20 69 69 SW 6 9 29.96 1015 10 16.0934 0 0
11:52 pm 23:52 Cloudy 78 25.6 66 18.9 67 67 SW 5 7 29.96 1015 10 16.0934 0 0

Powered by AerisWeather